sat.trackr.live / text

‹ back to catalog

STARLINK-32928

NORAD 63564 · 2025-075S

PAYLOAD ACTIVE UNKNOWN

§ Identity

Operator
Country
US
Launch date
2025-04-13
Launch site
AFETR
Launch vehicle
Mass (kg)
RCS (m²)

Purposes: comms

External: N2YO · Heavens-Above · Gunter

§ Orbital elements

Epoch: 2026-09-20T00:59:44.082816Z

Period
94.27 min
Inclination
43.0015°
Eccentricity
0.0001286
Mean motion
15.27583789 rev/d
Perigee alt
482.2 km
Apogee alt
483.9 km
Semi-major
6,861.2 km
B*
4.0806e-4
RAAN
252.8094°
Arg perigee
245.6795°
Mean anomaly
114.3922°
Rev number
8,166

§ Raw data

STARLINK-329281 63564U 25075S   26263.04148244  .00010985  00000+0  40806-3 0  99922 63564  43.0015 252.8094 0001286 245.6795 114.3922 15.27583789 81662

JSON: /api/v1/satellites/63564 · /tle

For live sub-satellite position, see the globe view (requires WebGL).

§ Visibility from observer

Set your observer location to see the next 7 days of passes ≥ 10°. The values pass through the URL so the page stays shareable.

No JS? Fill the form by hand. The geolocation button needs JavaScript.